| time (UTC) | temp F | wind direction | speed knots | gust knots | rain 1hr in | rain 24hr in | rain mn in | humidity % | barometer mb |
| 20260906164613 | 85 | 33 | 3.5 | 6.1 | 0.00 | 0.00 | 0.00 | 59 | 1017.4 |
| 20260906163610 | 86 | 23 | 2.6 | 6.1 | 0.00 | 0.00 | 0.00 | 58 | 1017.4 |
| 20260906162608 | 87 | 97 | 1.7 | 3.5 | 0.00 | 0.00 | 0.00 | 56 | 1017.4 |
| 20260906161605 | 88 | 108 | 2.6 | 7.0 | 0.00 | 0.00 | 0.00 | 54 | 1017.2 |
| 20260906160603 | 89 | 105 | 3.5 | 7.0 | 0.00 | 0.00 | 0.00 | 53 | 1017.2 |
| 20260906155600 | 90 | 70 | 2.6 | 6.1 | 0.00 | 0.00 | 0.00 | 51 | 1017.3 |
| 20260906154558 | 91 | 44 | 1.7 | 3.5 | 0.00 | 0.00 | 0.00 | 49 | 1017.2 |
| 20260906153555 | 92 | 114 | 0.9 | 3.5 | 0.00 | 0.00 | 0.00 | 48 | 1017.2 |
| 20260906152553 | 92 | 94 | 1.7 | 5.2 | 0.00 | 0.00 | 0.00 | 48 | 1017.1 |
| 20260906151550 | 92 | 16 | 2.6 | 5.2 | 0.00 | 0.00 | 0.00 | 48 | 1017.2 |
| 20260906150547 | 91 | 43 | 2.6 | 6.1 | 0.00 | 0.00 | 0.00 | 49 | 1017.3 |
| 20260906145545 | 92 | 31 | 3.5 | 7.0 | 0.00 | 0.00 | 0.00 | 47 | 1017.2 |
| 20260906144542 | 93 | 184 | 1.7 | 5.2 | 0.00 | 0.00 | 0.00 | 46 | 1017.3 |
| 20260906143539 | 91 | 23 | 4.3 | 7.0 | 0.00 | 0.00 | 0.00 | 47 | 1017.4 |
| 20260906142537 | 91 | 59 | 3.5 | 7.8 | 0.00 | 0.00 | 0.00 | 47 | 1017.4 |
| 20260906141534 | 92 | 42 | 3.5 | 9.6 | 0.00 | 0.00 | 0.00 | 46 | 1017.5 |
| 20260906140532 | 92 | 42 | 2.6 | 6.1 | 0.00 | 0.00 | 0.00 | 46 | 1017.5 |
| 20260906135529 | 93 | 56 | 2.6 | 7.0 | 0.00 | 0.00 | 0.00 | 44 | 1017.6 |
| 20260906134526 | 92 | 5 | 1.7 | 5.2 | 0.00 | 0.00 | 0.00 | 44 | 1017.6 |
| 20260906133524 | 93 | 355 | 2.6 | 5.2 | 0.00 | 0.00 | 0.00 | 43 | 1017.7 |
| 20260906132521 | 94 | 96 | 1.7 | 6.1 | 0.00 | 0.00 | 0.00 | 42 | 1017.8 |
| 20260906131519 | 93 | 68 | 1.7 | 5.2 | 0.00 | 0.00 | 0.00 | 43 | 1017.8 |
| 20260906130516 | 90 | 349 | 5.2 | 11.3 | 0.00 | 0.00 | 0.00 | 46 | 1017.7 |
| 20260906125614 | 92 | 36 | 3.5 | 9.6 | 0.00 | 0.00 | 0.00 | 44 | 1017.9 |
| 20260906124611 | 91 | 55 | 4.3 | 11.3 | 0.00 | 0.00 | 0.00 | 44 | 1017.9 |
| 20260906123608 | 91 | 52 | 3.5 | 9.6 | 0.00 | 0.00 | 0.00 | 43 | 1017.8 |
| 20260906122606 | 93 | 39 | 3.5 | 7.8 | 0.00 | 0.00 | 0.00 | 41 | 1017.9 |
| 20260906121603 | 93 | 147 | 2.6 | 7.8 | 0.00 | 0.00 | 0.00 | 40 | 1018.0 |
| 20260906120601 | 93 | 18 | 2.6 | 9.6 | 0.00 | 0.00 | 0.00 | 40 | 1018.0 |
| 20260906115558 | 93 | 96 | 1.7 | 5.2 | 0.00 | 0.00 | 0.00 | 40 | 1018.0 |
| 20260906114555 | 92 | 54 | 3.5 | 7.8 | 0.00 | 0.00 | 0.00 | 41 | 1018.1 |
| 20260906113553 | 93 | 48 | 2.6 | 7.0 | 0.00 | 0.00 | 0.00 | 39 | 1018.0 |
| 20260906112550 | 93 | 85 | 1.7 | 3.5 | 0.00 | 0.00 | 0.00 | 39 | 1018.2 |
| 20260906111548 | 91 | 18 | 1.7 | 5.2 | 0.00 | 0.00 | 0.00 | 40 | 1018.3 |
| 20260906110545 | 91 | 31 | 1.7 | 5.2 | 0.00 | 0.00 | 0.00 | 40 | 1018.3 |
| 20260906105543 | 92 | 334 | 1.7 | 3.5 | 0.00 | 0.00 | 0.00 | 39 | 1018.3 |
| 20260906104540 | 92 | 112 | 1.7 | 3.5 | 0.00 | 0.00 | 0.00 | 39 | 1018.4 |
| 20260906103537 | 92 | 150 | 0.9 | 3.5 | 0.00 | 0.00 | 0.00 | 39 | 1018.5 |
| 20260906102535 | 91 | 116 | 1.7 | 5.2 | 0.00 | 0.00 | 0.00 | 39 | 1018.5 |
| 20260906101532 | 91 | 45 | 0.9 | 3.5 | 0.00 | 0.00 | 0.00 | 39 | 1018.6 |
| 20260906100529 | 89 | 52 | 0.9 | 3.5 | 0.00 | 0.00 | 0.00 | 41 | 1018.6 |
| 20260906095527 | 90 | 107 | 0.9 | 3.5 | 0.00 | 0.00 | 0.00 | 40 | 1018.6 |
| 20260906094524 | 89 | 41 | 1.7 | 6.1 | 0.00 | 0.00 | 0.00 | 40 | 1018.6 |
| 20260906093522 | 89 | 142 | 1.7 | 3.5 | 0.00 | 0.00 | 0.00 | 40 | 1018.7 |
| 20260906092519 | 88 | 16 | 2.6 | 7.0 | 0.00 | 0.00 | 0.00 | 42 | 1018.6 |
| 20260906091516 | 87 | 28 | 2.6 | 6.1 | 0.00 | 0.00 | 0.00 | 42 | 1018.6 |
| 20260906090614 | 87 | 37 | 2.6 | 6.1 | 0.00 | 0.00 | 0.00 | 43 | 1018.6 |
| 20260906085612 | 87 | 59 | 2.6 | 6.1 | 0.00 | 0.00 | 0.00 | 43 | 1018.4 |
| 20260906084609 | 87 | 354 | 2.6 | 6.1 | 0.00 | 0.00 | 0.00 | 43 | 1018.4 |
| 20260906083607 | 87 | 23 | 1.7 | 6.1 | 0.00 | 0.00 | 0.00 | 42 | 1018.2 |
| 20260906082604 | 86 | 3 | 2.6 | 6.1 | 0.00 | 0.00 | 0.00 | 42 | 1018.2 |
| 20260906081601 | 86 | 30 | 3.5 | 7.0 | 0.00 | 0.00 | 0.00 | 41 | 1018.1 |
| 20260906080559 | 86 | 338 | 2.6 | 5.2 | 0.00 | 0.00 | 0.00 | 41 | 1018.0 |
| 20260906075556 | 87 | 349 | 0.0 | 1.7 | 0.00 | 0.00 | 0.00 | 41 | 1018.0 |
| 20260906074553 | 84 | 0.0 | 0.0 | 0.00 | 0.00 | 0.00 | 44 | 1017.8 | |
| 20260906073551 | 83 | 293 | 0.9 | 1.7 | 0.00 | 0.00 | 0.00 | 45 | 1017.8 |
| 20260906072548 | 82 | 323 | 0.9 | 3.5 | 0.00 | 0.00 | 0.00 | 47 | 1017.8 |
| 20260906071546 | 82 | 0.0 | 1.7 | 0.00 | 0.00 | 0.00 | 48 | 1017.8 | |
| 20260906070543 | 80 | 8 | 1.7 | 3.5 | 0.00 | 0.00 | 0.00 | 50 | 1017.9 |
| 20260906065540 | 78 | 6 | 3.5 | 6.1 | 0.00 | 0.00 | 0.00 | 50 | 1017.7 |
| 20260906064538 | 80 | 53 | 1.7 | 5.2 | 0.00 | 0.00 | 0.00 | 48 | 1017.7 |
| 20260906063535 | 80 | 24 | 1.7 | 3.5 | 0.00 | 0.00 | 0.00 | 48 | 1017.5 |
| 20260906062533 | 79 | 4 | 1.7 | 3.5 | 0.00 | 0.00 | 0.00 | 50 | 1017.3 |
| 20260906061530 | 79 | 119 | 0.9 | 1.7 | 0.00 | 0.00 | 0.00 | 51 | 1017.1 |
| 20260906060527 | 78 | 43 | 1.7 | 3.5 | 0.00 | 0.00 | 0.00 | 51 | 1017.1 |
| 20260906055525 | 78 | 68 | 0.0 | 1.7 | 0.00 | 0.00 | 0.00 | 51 | 1016.9 |
| 20260906054522 | 77 | 0.0 | 1.7 | 0.00 | 0.00 | 0.00 | 51 | 1016.9 | |
| 20260906053520 | 76 | 106 | 0.0 | 1.7 | 0.00 | 0.00 | 0.00 | 52 | 1016.9 |
| 20260906052517 | 76 | 0.0 | 0.0 | 0.00 | 0.00 | 0.00 | 53 | 1016.9 | |
| 20260906051515 | 76 | 0.0 | 1.7 | 0.00 | 0.00 | 0.00 | 51 | 1016.9 | |
| 20260906050612 | 76 | 113 | 0.0 | 1.7 | 0.00 | 0.00 | 0.00 | 48 | 1016.8 |
| 20260906045609 | 77 | 180 | 0.0 | 1.7 | 0.00 | 0.00 | 0.00 | 48 | 1016.8 |
| 20260906044607 | 78 | 90 | 0.0 | 1.7 | 0.00 | 0.00 | 0.00 | 46 | 1016.8 |
| 20260906043604 | 78 | 237 | 1.7 | 3.5 | 0.00 | 0.00 | 0.00 | 45 | 1016.9 |
| 20260906042602 | 75 | 248 | 0.0 | 1.7 | 0.00 | 0.00 | 0.00 | 52 | 1016.9 |
| 20260906041559 | 75 | 248 | 0.0 | 1.7 | 0.00 | 0.00 | 0.00 | 52 | 1017.1 |
| 20260906040556 | 75 | 240 | 1.7 | 1.7 | 0.00 | 0.00 | 0.00 | 52 | 1017.1 |
| 20260906035554 | 76 | 173 | 0.9 | 1.7 | 0.00 | 0.00 | 0.00 | 51 | 1017.1 |
| 20260906034551 | 76 | 184 | 0.9 | 1.7 | 0.00 | 0.00 | 0.00 | 48 | 1017.2 |
| 20260906033549 | 76 | 227 | 0.9 | 3.5 | 0.00 | 0.00 | 0.00 | 48 | 1017.2 |
| 20260906032546 | 76 | 236 | 0.9 | 1.7 | 0.00 | 0.00 | 0.00 | 52 | 1017.4 |
| 20260906031544 | 75 | 193 | 1.7 | 1.7 | 0.00 | 0.00 | 0.00 | 53 | 1017.3 |
| 20260906030541 | 76 | 131 | 0.9 | 3.5 | 0.00 | 0.00 | 0.00 | 48 | 1017.3 |
| 20260906025538 | 78 | 215 | 0.9 | 1.7 | 0.00 | 0.00 | 0.00 | 44 | 1017.3 |
| 20260906024536 | 80 | 0.0 | 0.0 | 0.00 | 0.00 | 0.00 | 40 | 1017.3 | |
| 20260906023533 | 79 | 241 | 1.7 | 3.5 | 0.00 | 0.00 | 0.00 | 42 | 1017.5 |
| 20260906022530 | 78 | 248 | 0.0 | 1.7 | 0.00 | 0.00 | 0.00 | 45 | 1017.4 |
| 20260906021528 | 79 | 245 | 2.6 | 3.5 | 0.00 | 0.00 | 0.00 | 42 | 1017.5 |
| 20260906020525 | 77 | 233 | 2.6 | 3.5 | 0.00 | 0.00 | 0.00 | 47 | 1017.4 |
| 20260906015523 | 77 | 225 | 3.5 | 5.2 | 0.00 | 0.00 | 0.00 | 49 | 1017.6 |
| 20260906014520 | 77 | 229 | 1.7 | 1.7 | 0.00 | 0.00 | 0.00 | 46 | 1017.6 |
| 20260906013517 | 77 | 133 | 0.9 | 1.7 | 0.00 | 0.00 | 0.00 | 46 | 1017.7 |
| 20260906012515 | 78 | 97 | 0.9 | 1.7 | 0.00 | 0.00 | 0.00 | 45 | 1017.6 |
| 20260906011613 | 79 | 270 | 0.0 | 1.7 | 0.00 | 0.00 | 0.00 | 41 | 1017.6 |
| 20260906010610 | 77 | 243 | 0.9 | 1.7 | 0.00 | 0.00 | 0.00 | 45 | 1017.7 |
| 20260906005607 | 77 | 235 | 1.7 | 3.5 | 0.00 | 0.00 | 0.00 | 45 | 1017.8 |
| 20260906004605 | 77 | 220 | 0.0 | 1.7 | 0.00 | 0.00 | 0.00 | 46 | 1017.9 |
| 20260906003602 | 78 | 237 | 0.0 | 1.7 | 0.00 | 0.00 | 0.00 | 46 | 1017.9 |
| 20260906002600 | 77 | 228 | 1.7 | 3.5 | 0.00 | 0.00 | 0.00 | 47 | 1018.0 |
| 20260906001557 | 77 | 231 | 0.9 | 1.7 | 0.00 | 0.00 | 0.00 | 52 | 1018.2 |
| 20260906000554 | 77 | 203 | 0.9 | 1.7 | 0.00 | 0.00 | 0.00 | 54 | 1018.3 |
| 20260905235552 | 77 | 225 | 0.9 | 1.7 | 0.00 | 0.00 | 0.00 | 54 | 1018.3 |
| 20260905234550 | 77 | 0.0 | 0.0 | 0.00 | 0.00 | 0.00 | 54 | 1018.4 | |
| 20260905233547 | 77 | 248 | 0.0 | 1.7 | 0.00 | 0.00 | 0.00 | 53 | 1018.3 |
| 20260905232544 | 77 | 241 | 0.9 | 1.7 | 0.00 | 0.00 | 0.00 | 54 | 1018.4 |
| 20260905231541 | 76 | 234 | 2.6 | 5.2 | 0.00 | 0.00 | 0.00 | 55 | 1018.5 |
| 20260905230539 | 77 | 212 | 0.9 | 1.7 | 0.00 | 0.00 | 0.00 | 56 | 1018.8 |
| 20260905225536 | 78 | 0.0 | 0.0 | 0.00 | 0.00 | 0.00 | 55 | 1018.7 | |
| 20260905224534 | 78 | 227 | 0.9 | 1.7 | 0.00 | 0.00 | 0.00 | 55 | 1018.7 |
| 20260905223531 | 78 | 180 | 0.0 | 1.7 | 0.00 | 0.00 | 0.00 | 57 | 1018.7 |
| 20260905222528 | 79 | 218 | 0.0 | 1.7 | 0.00 | 0.00 | 0.00 | 56 | 1018.8 |
| 20260905221526 | 79 | 233 | 2.6 | 3.5 | 0.00 | 0.00 | 0.00 | 56 | 1018.7 |
| 20260905220523 | 80 | 224 | 1.7 | 3.5 | 0.00 | 0.00 | 0.00 | 56 | 1018.6 |
| 20260905215521 | 79 | 233 | 1.7 | 3.5 | 0.00 | 0.00 | 0.00 | 56 | 1018.7 |
| 20260905214518 | 80 | 210 | 0.9 | 1.7 | 0.00 | 0.00 | 0.00 | 56 | 1018.8 |
| 20260905213515 | 80 | 225 | 1.7 | 3.5 | 0.00 | 0.00 | 0.00 | 55 | 1018.9 |
| 20260905212613 | 80 | 244 | 1.7 | 3.5 | 0.00 | 0.00 | 0.00 | 56 | 1019.0 |
| 20260905211611 | 79 | 0.0 | 0.0 | 0.00 | 0.00 | 0.00 | 60 | 1019.0 | |
| 20260905210608 | 79 | 211 | 0.9 | 1.7 | 0.00 | 0.00 | 0.00 | 61 | 1018.9 |
| 20260905205605 | 80 | 0.0 | 0.0 | 0.00 | 0.00 | 0.00 | 62 | 1019.1 | |
| 20260905204603 | 79 | 180 | 0.0 | 1.7 | 0.00 | 0.00 | 0.00 | 64 | 1019.1 |
| 20260905203600 | 80 | 211 | 1.7 | 3.5 | 0.00 | 0.00 | 0.00 | 62 | 1019.1 |
| 20260905202557 | 80 | 269 | 1.7 | 1.7 | 0.00 | 0.00 | 0.00 | 62 | 1019.1 |
| 20260905201555 | 81 | 312 | 0.9 | 1.7 | 0.00 | 0.00 | 0.00 | 62 | 1019.1 |
| 20260905200552 | 80 | 294 | 1.7 | 3.5 | 0.00 | 0.00 | 0.00 | 63 | 1019.0 |
| 20260905195550 | 80 | 303 | 2.6 | 3.5 | 0.00 | 0.00 | 0.00 | 65 | 1018.9 |
| 20260905194548 | 80 | 305 | 1.7 | 5.2 | 0.00 | 0.00 | 0.00 | 73 | 1019.0 |
| 20260905193545 | 80 | 309 | 2.6 | 5.2 | 0.00 | 0.00 | 0.00 | 75 | 1019.0 |
| 20260905192542 | 81 | 312 | 1.7 | 3.5 | 0.00 | 0.00 | 0.00 | 75 | 1019.0 |
| 20260905191539 | 81 | 340 | 1.7 | 3.5 | 0.00 | 0.00 | 0.00 | 74 | 1018.9 |
| 20260905190537 | 81 | 344 | 0.9 | 3.5 | 0.00 | 0.00 | 0.00 | 73 | 1018.8 |
| 20260905185534 | 81 | 313 | 2.6 | 6.1 | 0.00 | 0.00 | 0.00 | 74 | 1018.8 |
| 20260905184532 | 82 | 336 | 2.6 | 6.1 | 0.00 | 0.00 | 0.00 | 72 | 1018.8 |
| 20260905183529 | 82 | 346 | 2.6 | 5.2 | 0.00 | 0.00 | 0.00 | 72 | 1018.7 |
| 20260905182526 | 82 | 19 | 3.5 | 6.1 | 0.00 | 0.00 | 0.00 | 71 | 1018.8 |
| 20260905181524 | 83 | 333 | 2.6 | 5.2 | 0.00 | 0.00 | 0.00 | 69 | 1018.6 |
| 20260905180521 | 84 | 341 | 2.6 | 5.2 | 0.00 | 0.00 | 0.00 | 66 | 1018.5 |
| 20260905175519 | 84 | 22 | 3.5 | 6.1 | 0.00 | 0.00 | 0.00 | 65 | 1018.5 |
| 20260905174516 | 85 | 3 | 2.6 | 5.2 | 0.00 | 0.00 | 0.00 | 63 | 1018.5 |
| 20260905173614 | 85 | 360 | 2.6 | 5.2 | 0.00 | 0.00 | 0.00 | 58 | 1018.5 |
| 20260905172611 | 85 | 345 | 4.3 | 7.0 | 0.00 | 0.00 | 0.00 | 56 | 1018.5 |
| 20260905171609 | 86 | 17 | 4.3 | 7.0 | 0.00 | 0.00 | 0.00 | 55 | 1018.4 |
| 20260905170606 | 86 | 42 | 2.6 | 6.1 | 0.00 | 0.00 | 0.00 | 54 | 1018.6 |
| 20260905165603 | 86 | 20 | 4.3 | 7.8 | 0.00 | 0.00 | 0.00 | 52 | 1018.4 |